DW0126 Weather Reports


Display with metric or nautical units.
time (UTC)temp
F
wind
direction
speed
MPH
gust
MPH
rain 1hr
in
rain 24hr
in
rain mn
in
humidity
%
barometer
mb
20260505234236 63 225 4.0 6.0 0.00 0.00 0.00 73 1015.0
20260505233217 62 248 1.0 3.0 0.00 0.00 0.00 73 1015.0
20260505232217 63 225 5.0 8.0 0.00 0.00 0.00 73 1015.1
20260505231216 62 248 4.0 6.0 0.00 0.00 0.00 74 1015.2
20260505230216 62 315 4.0 6.0 0.00 0.00 0.00 72 1015.3
20260505225216 62 293 3.0 5.0 0.00 0.00 0.00 73 1015.3
20260505224216 62 225 4.0 8.0 0.00 0.00 0.00 73 1015.3
20260505223237 62 248 2.0 4.0 0.00 0.00 0.00 73 1015.4
20260505222216 62 248 2.0 6.0 0.00 0.00 0.00 74 1015.5
20260505221257 62 248 4.0 6.0 0.00 0.00 0.00 73 1015.6
20260505220217 62 225 4.0 7.0 0.00 0.00 0.00 73 1015.6
20260505215217 62 203 1.0 4.0 0.00 0.00 0.00 72 1015.6
20260505214216 62 270 2.0 4.0 0.00 0.00 0.00 72 1015.6
20260505213216 62 0.0 0.0 0.00 0.00 0.00 72 1015.7
20260505212256 62 248 4.0 6.0 0.00 0.00 0.00 73 1015.7
20260505211236 62 293 3.0 5.0 0.00 0.00 0.00 72 1015.8
20260505210216 62 0.0 0.0 0.00 0.00 0.00 73 1015.8
20260505205236 61 0.0 0.0 0.00 0.00 0.00 74 1015.8
20260505204256 61 203 4.0 6.0 0.00 0.00 0.00 75 1015.8
20260505203216 60 203 2.0 5.0 0.00 0.00 0.00 75 1015.9
20260505202216 60 225 3.0 6.0 0.00 0.00 0.00 76 1015.8
20260505201216 60 248 4.0 6.0 0.00 0.00 0.00 75 1015.7
20260505200217 60 248 2.0 3.0 0.00 0.00 0.00 76 1015.7
20260505195236 59 248 3.0 5.0 0.00 0.00 0.00 76 1015.7
20260505194216 59 248 1.0 3.0 0.00 0.00 0.00 77 1015.8
20260505193217 59 293 2.0 3.0 0.00 0.00 0.00 76 1015.8
20260505192216 59 270 3.0 4.0 0.00 0.00 0.00 76 1015.7
20260505191216 59 225 4.0 6.0 0.00 0.00 0.00 76 1015.6
20260505190217 59 225 3.0 6.0 0.00 0.00 0.00 77 1015.6
20260505185236 59 225 1.0 3.0 0.00 0.00 0.00 77 1015.7
20260505184216 58 270 2.0 3.0 0.00 0.00 0.00 78 1015.8
20260505183216 58 0.0 2.0 0.00 0.00 0.00 78 1015.7
20260505182216 58 180 4.0 6.0 0.00 0.00 0.00 78 1015.6
20260505181216 58 225 3.0 4.0 0.00 0.00 0.00 78 1015.6
20260505180216 58 293 2.0 3.0 0.00 0.00 0.00 79 1015.6
20260505175216 57 270 1.0 3.0 0.00 0.00 0.00 79 1015.5
20260505174216 57 270 2.0 4.0 0.00 0.00 0.00 80 1015.5
20260505173217 57 225 2.0 4.0 0.00 0.00 0.00 80 1015.4
20260505172216 57 270 3.0 5.0 0.00 0.00 0.00 81 1015.3
20260505171216 56 225 3.0 5.0 0.00 0.00 0.00 82 1015.3
20260505170216 56 248 3.0 5.0 0.00 0.00 0.00 82 1015.3
20260505165216 56 248 3.0 4.0 0.00 0.00 0.00 82 1015.3
20260505164256 56 225 3.0 4.0 0.00 0.00 0.00 82 1015.3
20260505163216 56 225 2.0 5.0 0.00 0.00 0.00 82 1015.1
20260505162236 56 225 3.0 5.0 0.00 0.00 0.00 81 1015.1
20260505161216 56 225 3.0 5.0 0.00 0.00 0.00 81 1015.1
20260505160217 56 0.0 1.0 0.00 0.00 0.00 82 1015.1
20260505153216 56 180 2.0 3.0 0.00 0.00 0.00 83 1014.9
20260505152216 56 135 1.0 3.0 0.00 0.00 0.00 83 1015.0
20260505151216 56 248 2.0 5.0 0.00 0.00 0.00 84 1014.9
20260505150236 56 0.0 0.0 0.00 0.00 0.00 85 1014.8
20260505140216 55 0.0 0.0 0.00 0.00 0.00 86 1014.4
20260505130216 55 0.0 0.0 0.00 0.00 0.00 86 1014.1
20260505124216 55 0.0 0.0 0.00 0.00 0.00 86 1014.1
20260505123216 55 248 2.0 3.0 0.00 0.00 0.00 86 1014.0
20260505122216 55 0.0 0.0 0.00 0.00 0.00 86 1013.9
20260505121216 55 0.0 0.0 0.00 0.00 0.00 86 1013.9
20260505120216 55 0.0 0.0 0.00 0.00 0.00 86 1013.8
20260505115216 55 248 2.0 3.0 0.00 0.00 0.00 86 1013.9
20260505114216 55 225 2.0 3.0 0.00 0.00 0.00 86 1013.8
20260505113216 55 248 3.0 4.0 0.00 0.00 0.00 86 1013.9
20260505112236 55 225 3.0 6.0 0.00 0.00 0.00 86 1013.8
20260505111216 55 225 2.0 4.0 0.00 0.00 0.00 86 1013.8
20260505110216 55 225 5.0 7.0 0.00 0.00 0.00 86 1013.8
20260505102216 55 225 3.0 7.0 0.00 0.00 0.00 86 1013.5
20260505101216 55 225 3.0 6.0 0.00 0.00 0.00 86 1013.4
20260505100236 55 203 3.0 6.0 0.00 0.00 0.00 86 1013.4
20260505095236 55 203 4.0 6.0 0.00 0.00 0.00 86 1013.5
20260505094236 55 203 2.0 3.0 0.00 0.00 0.00 86 1013.3
20260505093216 55 225 3.0 4.0 0.00 0.00 0.00 86 1013.2
20260505092216 55 225 2.0 3.0 0.00 0.00 0.00 86 1013.1
20260505091216 55 225 4.0 6.0 0.00 0.00 0.00 86 1013.1
20260505090216 55 225 3.0 5.0 0.00 0.00 0.00 86 1013.0
20260505085216 55 225 4.0 7.0 0.00 0.00 0.00 86 1013.0
20260505084236 55 203 4.0 8.0 0.00 0.00 0.00 86 1012.9
20260505083216 55 225 4.0 6.0 0.00 0.00 0.00 86 1012.9
20260505082216 55 225 5.0 10.0 0.00 0.00 0.00 86 1012.8
20260505081236 55 225 3.0 6.0 0.00 0.00 0.00 86 1012.9
20260505080216 55 203 2.0 3.0 0.00 0.00 0.00 86 1012.9
20260505075216 55 203 4.0 6.0 0.00 0.00 0.00 86 1012.8
20260505074216 55 225 3.0 5.0 0.00 0.00 0.00 87 1012.7
20260505073236 55 225 2.0 4.0 0.00 0.00 0.00 87 1012.5
20260505072256 55 180 3.0 5.0 0.00 0.00 0.00 88 1012.4
20260505071216 55 225 2.0 3.0 0.00 0.00 0.00 88 1012.2
20260505070236 54 248 3.0 5.0 0.00 0.00 0.00 88 1012.0
20260505065217 54 225 3.0 4.0 0.00 0.00 0.00 88 1012.0
20260505064217 54 225 3.0 6.0 0.00 0.00 0.00 88 1012.0
20260505063217 54 225 2.0 5.0 0.00 0.00 0.00 87 1011.8
20260505062217 54 180 1.0 3.0 0.00 0.00 0.00 87 1011.6
20260505061217 54 0.0 2.0 0.00 0.00 0.00 87 1011.4
20260505060217 54 248 3.0 4.0 0.00 0.00 0.00 86 1011.3
20260505055217 54 225 4.0 5.0 0.00 0.00 0.00 86 1011.3
20260505054217 55 248 4.0 7.0 0.00 0.00 0.00 86 1011.2
20260505053217 55 248 2.0 3.0 0.00 0.00 0.00 85 1011.3
20260505052217 55 225 2.0 4.0 0.00 0.00 0.00 85 1011.2
20260505051217 55 203 3.0 5.0 0.00 0.00 0.00 84 1011.1
20260505050217 55 225 2.0 4.0 0.00 0.00 0.00 84 1011.0
20260505041216 57 248 3.0 4.0 0.00 0.00 0.00 81 1010.6
20260505040237 57 225 3.0 4.0 0.00 0.00 0.00 80 1010.5
20260505035217 58 248 3.0 7.0 0.00 0.00 0.00 78 1010.4
20260505034217 59 225 4.0 8.0 0.00 0.00 0.00 76 1010.2
20260505033217 60 225 5.0 8.0 0.00 0.00 0.00 74 1010.2
20260505032217 61 225 4.0 8.0 0.00 0.00 0.00 72 1010.0
20260505031237 62 225 3.0 6.0 0.00 0.00 0.00 71 1009.9
20260505030217 62 225 5.0 8.0 0.00 0.00 0.00 69 1009.8
20260505025236 63 270 5.0 7.0 0.00 0.00 0.00 67 1009.6
20260505024217 64 225 5.0 8.0 0.00 0.00 0.00 65 1009.5
20260505023217 65 225 7.0 11.0 0.00 0.00 0.00 63 1009.4
20260505022237 67 225 7.0 11.0 0.00 0.00 0.00 61 1009.3
20260505021217 68 203 6.0 12.0 0.00 0.00 0.00 59 1009.3
20260505020216 68 225 6.0 11.0 0.00 0.00 0.00 59 1009.3
20260505015237 69 225 5.0 8.0 0.00 0.00 0.00 58 1009.2
20260505014217 69 225 8.0 12.0 0.00 0.00 0.00 57 1009.2
20260505013216 70 225 6.0 8.0 0.00 0.00 0.00 55 1009.2
20260505012216 71 225 3.0 5.0 0.00 0.00 0.00 56 1009.3
20260505011237 71 225 6.0 12.0 0.00 0.00 0.00 55 1009.3
20260505010216 72 225 8.0 15.0 0.00 0.00 0.00 54 1009.2
20260505005217 73 248 6.0 10.0 0.00 0.00 0.00 53 1009.3
20260505004257 74 248 5.0 8.0 0.00 0.00 0.00 52 1009.3
20260505003216 74 203 6.0 10.0 0.00 0.00 0.00 51 1009.2
20260505002216 75 203 7.0 9.0 0.00 0.00 0.00 49 1009.0
20260505001217 76 225 3.0 6.0 0.00 0.00 0.00 47 1009.1
20260505000218 76 203 5.0 9.0 0.00 0.00 0.00 47 1009.1
20260504235217 76 248 5.0 6.0 0.00 0.00 0.00 47 1009.1